User: anonymous   Login
Location: ?
(35.4214°N, 139.3011°E)
Time: 12:57:31
(UTC+00:00)
Language:

CZ-2C R/B - Orbit

View from above orbital plane
View from above orbital plane
View from above satellite
View from above satellite

Ground track
Ground track

The orbit data is extracted from the following two-line orbital elements,

1 37766U 11039B   20262.88067995 +.00000038 +00000-0 +16179-4 0  9996
2 37766 098.3691 117.9808 0046885 089.1230 271.5344 14.66490903489116
Epoch (UTC): 18 September 2020 21:08:10
Eccentricity: 0.0046885
inclination: 98.3691°
perigee height: 639 km
apogee height: 705 km
right ascension of ascending node: 117.9808°
argument of perigee: 89.1230°
revolutions per day: 14.66490903
mean anomaly at epoch: 271.5344°
orbit number at epoch: 48911

The dashed part of the orbit path shows where the satellite is in the earth's shadow,  

DLR